Temp_Advection
nan nan nan nan nan nan nan nan nan nan nan nan nan nan nan nan nan nan nan nan nan nan nan nan nan nan nan nan nan nan nan nan nan nan nan nan nan nan nan nan nan nan nan nan nan nan nan nan nan nan nan nan nan nan nan nan nan nan nan nan nan nan nan nan nan nan nan nan nan
nan -0 -0 -1 -1 -1 -1 -0 -0 -0 0 -0 -0 -1 -1 -1 -1 -0 0 0 1 1 1 1 1 1 1 0 1 2 2 2 1 1 1 2 2 2 2 2 2 2 2 2 1 1 1 1 0 0 0 0 0 0 0 0 0 0 0 0 0 -0 -0 -1 -1 -0 -0 0 nan
nan -0 -0 -0 -0 -0 -0 -0 -0 0 0 -0 -0 -1 -1 -1 -1 -0 0 1 1 1 1 1 1 0 -0 0 1 2 2 2 1 1 1 2 2 2 2 2 1 2 2 2 2 1 1 1 1 0 0 0 0 0 0 0 0 0 0 -0 0 -0 -0 -1 -1 -0 -0 0 nan
nan -0 -0 -0 -0 -0 -0 -0 -0 -0 -0 -0 -0 -0 -0 -0 0 0 1 1 1 1 1 1 1 -0 -0 1 1 2 2 2 2 1 1 1 2 2 2 1 1 1 2 2 2 2 1 1 1 1 0 0 0 0 0 0 0 0 0 0 0 -0 -0 -1 -1 -0 -0 -0 nan
nan -0 -0 -0 -0 -0 -0 -0 -0 -0 -0 -0 -0 -0 0 0 1 1 1 1 1 1 1 1 0 0 1 1 1 1 1 2 2 2 1 1 1 1 1 2 1 1 1 2 2 2 2 2 1 1 1 0 0 0 0 1 1 1 0 0 0 0 -0 -0 -0 -0 -0 0 nan
nan 0 -0 -0 -0 -0 -0 -0 -0 -0 -0 -0 -0 0 0 1 1 1 1 1 1 1 0 0 0 1 1 1 1 1 1 1 2 2 2 1 1 1 1 2 2 2 2 2 2 2 2 2 1 1 1 0 0 1 1 1 1 1 1 1 0 0 0 0 -0 0 0 0 nan
nan 0 -0 -0 -0 -0 -0 -0 -0 -0 -0 -0 -0 0 0 0 0 0 0 0 0 0 0 0 0 1 0 0 0 0 0 0 1 2 2 2 2 1 2 2 2 2 2 2 2 2 2 2 2 1 1 1 0 0 1 1 1 1 1 1 1 1 1 0 0 0 0 0 nan
nan -0 -0 -0 -0 -0 -0 -0 -0 -0 -0 -0 0 0 0 0 0 0 0 1 0 0 0 0 0 0 0 0 0 0 -0 -0 0 1 2 2 1 1 1 2 2 2 2 2 2 2 1 2 2 1 1 1 1 0 1 1 1 1 1 1 1 1 1 0 0 0 0 0 nan
nan 0 -0 -0 -0 -0 -0 -0 -0 -0 -0 0 0 0 0 0 0 0 1 0 0 0 0 0 0 0 0 1 0 0 0 -0 0 1 2 1 1 1 1 1 1 1 1 1 1 1 1 1 1 1 1 1 1 1 1 1 1 1 1 1 1 1 0 0 0 0 0 0 nan
nan 0 -0 -0 -0 -0 -0 -0 -0 -0 -0 0 0 0 0 0 0 0 0 0 0 0 0 0 0 0 0 0 0 0 0 0 0 1 1 1 1 2 2 1 1 1 0 0 0 0 1 1 1 1 1 1 1 1 1 1 1 1 1 0 0 0 0 0 0 0 0 0 nan
nan -0 -0 -0 -0 -0 -0 -0 0 0 0 0 0 0 0 0 0 0 0 0 0 0 0 0 0 0 0 -0 -0 0 0 0 0 0 0 0 2 2 2 2 1 0 0 -0 -0 -0 0 0 1 1 1 1 1 1 1 1 1 1 0 0 0 0 0 0 0 0 0 0 nan
nan -0 -0 -0 -0 -0 -0 -0 0 0 0 0 0 0 0 0 0 0 0 0 0 0 0 0 0 0 -0 -0 -0 0 0 0 0 -0 -0 0 1 2 2 1 1 0 0 -0 -0 -0 0 0 0 0 1 1 1 1 1 1 1 0 0 0 0 0 0 0 0 0 0 0 nan
nan -0 -0 -0 -0 -0 -0 -0 0 0 0 0 0 0 0 0 0 0 0 0 0 0 0 0 0 0 0 -0 -0 0 0 0 0 0 0 0 1 1 1 1 0 0 0 0 -0 -0 -0 0 0 0 0 1 1 1 1 0 0 0 0 0 0 0 0 0 0 0 0 -0 nan
nan -0 -0 -0 -0 -0 -0 0 0 0 0 0 -0 0 0 0 0 0 -0 0 0 0 0 0 0 0 0 0 -0 0 0 0 0 0 0 0 0 0 0 0 0 0 0 0 0 0 0 0 0 0 0 0 1 1 1 0 0 0 0 0 0 0 0 0 0 -0 -1 -0 nan
nan -0 -0 -0 0 -0 -0 -0 -0 -0 -0 0 -0 0 0 0 0 0 -0 -0 0 0 0 0 0 0 0 0 0 0 0 0 0 0 0 -0 -0 -0 -0 -0 -0 -0 0 0 1 1 0 0 0 0 1 1 1 1 1 1 1 0 0 0 0 0 0 -0 -1 -1 -1 -0 nan
nan 0 0 0 0 0 -0 -0 -0 -0 -0 -0 0 0 0 -0 -0 -0 -0 -0 -0 0 0 0 -0 -0 0 0 0 0 -0 0 0 0 0 -0 -1 -1 -1 -1 -1 -0 0 1 1 1 1 1 1 1 1 1 1 1 1 1 1 1 1 1 0 0 -0 -1 -1 -0 0 0 nan
nan 0 0 0 0 0 0 0 -0 -0 -0 -0 0 0 0 0 -0 -0 -0 -0 -0 -0 0 0 -0 -0 -0 -0 -0 -0 -0 0 0 0 -0 -0 -1 -1 -1 -1 -1 -0 0 1 1 1 1 1 1 1 1 0 0 0 0 0 0 0 1 1 0 -0 -1 -1 0 1 1 -0 nan
nan 0 0 0 0 0 0 0 -0 -0 -0 -0 -0 0 0 0 0 -0 -0 -0 -0 -0 -0 0 0 -0 -0 -0 -0 -0 -0 -0 -0 0 -0 -0 -0 -0 -1 -1 -1 -1 -0 0 0 1 1 1 1 0 0 0 0 0 0 0 0 0 0 0 0 -0 -0 0 0 0 0 -0 nan
nan 0 0 0 0 0 0 0 0 -0 -0 -0 -0 0 0 0 0 0 -0 -0 -0 -0 -0 -0 -0 -0 -0 -0 -0 -0 -0 -0 -0 0 0 0 0 -0 -0 -0 -1 -1 -1 -1 -1 0 0 1 0 0 0 0 0 0 -0 0 0 0 0 0 0 0 0 0 0 0 0 0 nan
nan 0 0 0 0 0 0 0 0 0 0 0 0 0 0 0 0 0 0 -0 -0 -0 -0 -0 -0 -0 -0 -0 -0 -0 -0 -0 -0 0 0 0 0 0 0 0 -0 -0 -1 -1 -1 -0 0 0 0 0 0 0 0 0 0 -0 -0 0 0 0 0 0 0 0 0 0 0 0 nan
nan 0 0 0 0 0 0 0 0 0 0 0 0 0 0 0 0 0 0 -0 -0 -0 -0 -0 -0 -0 -0 -0 -0 -0 -0 -0 0 0 0 0 0 0 0 0 0 0 -0 -0 -0 -0 0 0 0 0 0 0 0 0 0 -0 -0 -0 0 0 0 0 0 0 0 0 0 0 nan
nan 0 0 0 0 0 0 0 0 0 0 0 0 0 0 0 0 0 0 0 0 -0 -0 -0 -0 -0 -0 -0 -0 -0 -0 -0 0 0 0 0 0 0 0 0 0 0 -0 -0 -0 -0 0 0 -0 -0 -0 -0 -0 0 0 0 0 0 0 0 0 0 0 0 0 0 0 -0 nan
nan 0 0 0 0 0 1 1 1 1 1 1 0 0 0 0 0 0 0 0 0 0 -0 -0 -0 -0 -0 -0 -0 -0 -0 -0 -0 0 0 0 0 0 0 0 0 -0 -0 -0 -0 -0 -0 -0 -0 -0 -0 -1 -1 -0 -0 -0 -0 0 0 0 0 0 0 0 0 0 0 -0 nan
nan 0 0 0 0 1 1 1 1 1 1 1 1 0 0 0 0 0 0 0 0 0 0 -0 -0 -0 -0 -0 -0 -0 -0 -0 -0 -0 -0 0 0 0 0 0 0 -0 -0 -0 0 -0 -0 -0 -0 -0 -0 -0 -1 -1 -1 -1 -1 -1 -1 -0 -0 -0 -0 -0 -0 0 0 -0 nan
nan 0 0 0 1 1 1 1 1 1 1 1 1 1 0 0 0 0 0 -0 0 0 0 -0 -0 -0 -0 -0 -0 -0 -0 -0 -1 -1 -1 -0 -0 0 0 0 0 0 -0 -0 -0 -0 -0 -0 -0 -0 -0 -0 -0 -0 -1 -1 -1 -1 -1 -1 -1 -1 -1 -0 -0 -0 -0 -0 nan
nan 0 0 0 0 0 0 0 0 0 0 0 0 0 0 0 0 0 0 -0 -0 0 0 -0 -0 -0 -0 -0 -0 -0 -0 -0 -0 -1 -1 -1 -0 -0 0 0 0 0 -0 -0 -0 -0 0 -0 -0 -0 -0 -0 -0 -0 -0 -0 -0 -1 -1 -1 -1 -1 -1 -1 -1 -1 -1 -0 nan
nan 0 0 0 0 0 0 0 0 0 0 0 0 0 0 0 0 0 0 0 -0 -0 -0 -0 -0 -0 -0 -0 -0 -0 -0 -0 -0 -0 -0 -1 -1 -1 -0 -0 -0 0 -0 -1 -1 0 0 0 -0 -1 -1 -0 -0 -0 -0 -0 -0 -0 -0 -0 -1 -1 -1 -1 -1 -1 -1 -1 nan
nan -0 0 0 0 0 0 0 0 0 -0 -0 -0 -0 -0 -0 0 0 0 0 -0 -0 -0 -0 -0 -0 -0 -0 -0 -0 -0 -0 -0 -0 -0 -0 -1 -1 -1 -1 -0 -0 -1 -1 -1 0 0 0 -0 -1 -1 -1 -1 -1 -1 -1 -0 -0 -0 -0 -0 -0 -1 -1 -1 -1 -1 -1 nan
nan -0 -0 -0 -0 0 0 0 0 -0 -0 -0 -0 -0 -0 -0 0 0 0 -0 -0 -0 -0 -0 -0 -0 -0 -0 -0 -0 -0 -0 -0 -0 -0 -0 -1 -1 -1 -1 -1 -1 -1 -1 -0 -0 -0 -0 -0 -0 -1 -1 -1 -1 -1 -1 -1 -1 -1 -1 -1 -0 -0 -0 -0 -0 -1 -1 nan
nan -0 -0 -0 -0 -0 0 0 0 -0 -0 -0 -0 -0 -0 0 0 0 -0 -0 -0 -0 -0 -0 -0 -0 -0 -0 -0 -0 -0 -0 -0 -0 -0 -0 -1 -1 -1 -1 -1 -1 -1 -0 -0 -0 -0 -0 -0 -0 -0 -0 -0 -1 -1 -1 -1 -1 -1 -1 -1 -0 -0 -0 -0 -0 -0 -0 nan
nan -0 -0 -0 -0 -0 0 0 0 0 -0 -0 -0 -0 -0 0 0 -0 -0 -0 -0 -0 -0 -0 -0 -0 -0 -0 -0 -0 -0 -0 -0 -0 -0 -0 -0 -1 -1 -1 -1 -1 -0 -0 -0 -0 -0 -0 -0 -0 -0 -0 -0 -0 -0 -0 -0 -1 -0 -0 -0 -0 -0 -0 -0 -0 -0 -0 nan
nan 0 -0 -0 -0 -0 0 0 0 0 0 -0 -0 -0 -0 -0 -0 -0 -0 -0 -0 0 0 0 0 0 -0 -0 -0 -0 -0 -0 -0 -0 -0 -0 -0 -0 -0 -0 -1 -1 -0 -0 -0 -0 -0 -0 -0 -0 -0 -0 -0 -0 -0 -0 -0 -0 -0 -0 -0 -0 -0 -0 -0 -0 -0 -0 nan
nan 0 -0 -0 -0 -0 -0 0 0 0 0 0 0 0 -0 -0 -0 -0 -0 -0 0 0 0 0 0 0 0 -0 -0 -0 -0 -0 -0 -0 -0 -0 -0 -0 -0 -0 -1 -1 -1 -0 -1 -0 0 -0 -0 -0 -0 -0 -0 -0 -0 -0 -0 -0 -0 -0 -0 -0 -0 -0 -0 -0 -0 -0 nan
nan 0 -0 -0 -0 -0 -0 -0 -0 0 0 0 0 0 0 -0 -0 -0 0 0 0 0 0 0 0 0 0 0 0 -0 -0 -0 -0 -0 -0 -0 -0 -0 -0 -0 -0 -0 -0 -0 -1 -0 0 -0 0 -0 -0 -0 -0 -0 -0 -0 -0 0 0 0 0 0 -0 -0 -0 -0 -0 -0 nan
nan -0 -0 0 -0 -0 -0 -0 -0 0 0 0 0 0 0 0 -0 -0 -0 0 0 0 0 0 0 0 0 0 0 0 -0 -0 -0 -0 -0 -0 -0 -0 -0 -0 -0 -0 -0 -0 -0 -0 -0 0 0 -0 -0 -0 -0 -0 -0 -0 -0 0 0 0 0 0 0 0 -0 -0 -0 -0 nan
nan -0 -0 -0 -0 -0 -0 -0 -0 0 0 0 0 0 0 0 0 0 0 0 0 0 -0 -0 -0 0 0 0 0 0 -0 -0 -0 -0 -0 -0 -0 -0 -0 -0 -0 -0 -0 -0 0 -0 -1 0 0 -0 -0 -0 -0 -0 -0 -0 -0 0 0 0 0 0 0 0 0 0 -0 -0 nan
nan -0 -0 -0 -0 -0 -0 -0 -0 -0 0 0 0 0 1 1 1 0 0 0 0 0 0 -0 -0 -0 -0 0 0 0 0 -0 -0 -0 -0 -0 -0 -0 -0 -0 -0 0 -0 -0 0 -0 -1 0 0 0 0 -0 0 0 0 -0 -0 -0 0 0 0 0 0 0 0 0 0 0 nan
nan -0 -0 -0 -0 -0 -0 -0 -0 -0 -0 -0 0 0 0 1 1 1 1 0 0 0 0 0 -0 -0 -0 -0 -0 0 0 0 0 -0 -0 -0 -0 -0 -0 -0 -0 -0 -0 -0 -0 -0 -0 -1 -0 1 0 0 -0 0 0 0 -0 -0 -0 -0 0 0 0 0 0 0 0 0 nan
nan -0 -0 -0 -0 -0 -0 -0 -0 -0 -0 -0 -0 0 0 0 1 1 1 1 0 0 0 0 0 -0 -0 -0 -0 0 0 0 0 0 -0 -0 -0 -0 -0 -0 -0 -0 -0 -0 -0 0 0 -1 -1 0 1 0 -0 -0 0 0 0 -0 -0 -0 -0 -0 0 0 0 0 0 0 nan
nan -0 -0 -0 -0 -0 -0 -0 -0 -0 -0 -0 -0 -0 0 0 1 1 1 1 1 1 0 1 0 0 -0 -0 -0 -0 0 0 0 0 0 -0 -0 -0 -0 -0 -0 -0 -0 -0 -0 0 0 -0 -1 -0 0 0 0 -0 -0 -0 0 -0 -0 -0 -0 -0 -0 0 0 0 0 0 nan
nan nan nan nan nan nan nan nan nan nan nan nan nan nan nan nan nan nan nan nan nan nan nan nan nan nan nan nan nan nan nan nan nan nan nan nan nan nan nan nan nan nan nan nan nan nan nan nan nan nan nan nan nan nan nan nan nan nan nan nan nan nan nan nan nan nan nan nan nan
Wind_Speed
29 29 29 28 27 26 25 24 23 22 22 22 23 25 26 28 29 30 31 32 33 33 34 34 34 34 35 36 37 38 38 39 39 39 38 37 37 37 38 38 38 37 37 37 36 34 33 31 30 29 28 27 27 26 26 26 25 24 23 22 22 21 19 17 15 12 10 10 11
28 28 27 26 25 24 23 22 21 21 21 21 22 24 26 28 29 30 31 32 33 33 33 33 33 33 34 35 36 37 38 39 39 39 39 38 38 38 38 38 39 38 38 37 35 34 33 31 30 29 28 27 27 26 26 25 24 24 23 23 21 20 18 16 13 11 10 10 12
27 27 26 25 24 23 22 20 20 19 20 21 22 24 26 27 29 30 31 32 33 33 32 32 32 32 34 35 36 37 38 39 39 39 38 39 39 39 39 39 40 39 38 37 35 34 32 31 30 29 28 27 27 26 25 25 24 23 23 22 21 19 17 15 12 10 11 12 13
27 26 25 24 23 21 20 19 18 18 19 20 22 24 25 27 28 30 32 33 33 32 31 30 31 32 33 34 36 37 38 38 39 38 38 39 40 40 41 41 41 40 39 37 35 33 32 30 29 27 26 26 25 25 25 24 23 23 22 21 19 18 16 14 12 11 12 13 14
26 26 25 23 22 20 19 18 18 18 19 20 22 24 25 26 28 30 31 32 31 30 29 29 30 31 32 34 35 36 37 38 38 38 39 39 40 41 42 42 41 41 39 37 35 33 31 29 27 25 24 23 23 23 23 23 22 22 21 20 18 17 15 14 12 12 13 14 14
26 25 24 23 21 19 18 17 18 18 19 21 22 24 25 26 28 30 31 31 30 28 28 28 29 31 32 33 34 36 37 38 38 38 39 39 40 41 42 42 42 41 39 37 35 32 30 27 25 23 22 21 21 21 21 21 22 21 21 20 18 17 15 14 13 13 13 14 14
26 25 24 22 20 19 18 17 18 18 20 21 23 24 25 27 29 30 31 30 28 27 27 28 29 30 32 33 34 35 37 38 39 39 39 40 41 41 41 41 41 41 39 37 35 31 28 25 23 22 20 19 19 19 19 19 20 20 20 19 18 16 14 13 13 13 14 14 12
25 24 23 21 20 18 18 18 18 19 20 22 23 24 26 28 29 30 29 28 27 26 26 27 29 30 31 32 33 35 36 38 38 39 40 41 41 41 40 40 40 40 39 36 33 30 27 23 21 20 19 18 18 18 17 17 18 18 18 17 15 13 12 12 13 13 13 12 10
25 24 23 21 19 18 18 18 18 19 20 21 23 24 26 28 29 29 28 27 25 25 26 27 29 30 30 31 32 34 36 37 38 39 40 41 40 40 40 39 39 39 37 34 31 28 25 23 20 19 18 17 17 17 16 15 15 15 14 13 12 11 10 11 12 12 12 11 9
25 24 23 21 19 18 18 18 18 19 20 21 23 25 26 28 28 28 27 25 24 24 26 28 29 29 30 30 31 33 35 36 37 38 39 40 40 40 40 39 39 38 36 32 30 27 25 22 21 19 18 17 16 15 14 13 13 12 12 11 10 10 10 10 11 11 11 10 9
25 24 23 21 19 18 18 18 18 19 20 21 23 25 26 27 28 27 25 24 23 24 26 28 29 29 29 29 30 32 34 35 36 37 38 40 40 40 40 39 37 36 34 32 29 26 24 22 21 20 19 18 16 15 14 13 12 11 11 10 9 8 8 8 9 10 10 10 11
25 24 23 21 19 18 17 17 18 19 20 21 23 25 26 27 27 26 24 23 23 25 26 28 29 29 29 29 30 31 33 34 35 36 37 38 39 40 40 38 36 34 33 32 29 25 22 21 21 20 20 19 17 16 14 13 12 12 11 10 9 8 7 6 8 9 11 12 15
25 24 23 20 19 17 17 17 17 18 20 21 23 24 26 27 26 25 24 23 23 25 26 28 29 29 29 29 29 30 32 34 34 34 35 37 39 39 39 38 35 33 32 32 29 25 21 20 20 20 20 19 18 17 16 14 13 13 12 11 10 8 7 6 8 10 12 16 19
25 24 22 20 18 17 17 16 17 18 19 21 22 24 25 26 26 25 24 23 23 25 26 28 28 29 29 29 29 29 31 33 33 33 34 35 37 38 39 37 35 32 30 31 29 25 21 20 19 19 19 19 19 19 18 17 15 14 12 11 10 8 8 8 9 13 17 20 21
24 23 21 20 18 17 16 16 17 17 19 20 22 23 24 26 26 25 23 23 23 24 26 27 28 29 29 29 28 29 30 32 33 33 33 34 36 37 38 37 35 31 29 30 29 25 22 20 19 19 20 20 21 21 21 20 19 17 15 12 10 9 9 12 16 20 22 22 22
24 23 21 19 17 16 16 16 16 17 18 19 21 22 24 25 25 25 24 23 23 23 25 27 28 28 29 29 28 28 29 31 32 32 32 32 34 36 37 37 35 32 29 29 29 26 22 21 20 20 21 22 23 24 25 25 24 23 21 18 16 15 17 21 24 25 24 23 23
23 22 21 19 17 16 16 16 16 16 17 18 20 21 23 24 25 25 24 23 23 23 24 25 27 28 28 29 29 28 29 30 31 31 31 31 32 34 35 36 35 33 31 30 30 27 23 22 21 21 22 23 25 27 28 28 28 28 27 26 25 24 25 26 26 26 26 26 25
23 22 21 19 18 17 16 16 16 16 17 18 19 20 21 23 24 24 24 23 22 22 23 24 26 27 28 28 29 29 29 29 30 30 31 30 31 32 33 34 35 34 33 31 32 29 26 23 22 22 22 23 25 27 28 29 29 29 29 29 29 28 26 25 25 26 26 27 26
23 22 21 20 18 17 17 16 16 16 17 17 18 19 20 22 23 24 24 23 22 22 22 23 25 26 27 27 28 28 28 28 29 29 30 29 29 30 31 32 33 33 32 32 31 29 27 25 24 22 21 22 23 24 26 27 27 27 27 27 27 27 26 24 23 23 23 24 24
23 22 21 20 19 18 17 17 17 17 17 17 18 18 19 20 22 23 24 24 23 22 22 22 23 25 26 26 27 28 28 28 28 28 28 29 28 28 29 30 31 31 31 30 29 27 26 26 25 23 22 21 22 23 24 26 26 25 23 23 23 24 24 23 22 21 20 20 20
22 21 21 20 19 19 18 18 17 17 17 17 17 18 18 19 21 22 23 23 23 22 22 22 22 24 25 26 26 27 27 28 28 27 27 28 27 27 27 28 29 30 30 29 27 25 24 24 24 24 23 23 22 23 24 25 25 25 23 22 21 21 22 21 21 20 19 19 19
21 21 20 20 19 19 19 18 18 17 17 17 17 17 18 19 20 21 23 23 23 22 21 21 22 23 24 25 26 26 27 27 27 27 27 27 27 27 26 26 27 28 28 27 27 25 23 22 22 22 22 22 22 22 23 23 24 24 23 22 22 21 21 20 20 19 19 18 19
21 21 20 20 19 19 19 19 18 18 17 17 17 18 18 18 19 21 22 22 22 21 21 21 21 22 23 24 25 26 26 26 26 26 26 26 27 27 27 26 26 27 26 25 25 26 24 22 20 20 21 21 21 21 21 21 21 21 21 21 21 21 21 20 19 19 18 18 18
20 20 20 19 19 19 19 19 19 19 18 18 18 18 18 19 19 21 22 22 21 21 20 20 21 21 22 22 23 24 25 26 26 26 26 26 26 27 28 28 26 25 24 22 24 25 25 24 21 19 18 19 19 19 19 19 20 20 20 20 20 20 19 19 18 17 17 17 18
20 20 19 19 19 19 20 20 20 19 19 19 18 18 18 19 20 21 22 22 21 20 20 20 21 21 21 22 22 23 24 25 26 27 26 26 26 27 28 30 28 25 23 21 23 24 26 26 23 20 18 17 17 18 18 19 19 20 20 20 19 19 18 18 17 16 15 15 16
20 19 19 19 20 20 20 20 20 20 19 19 18 18 18 19 20 21 22 21 20 19 19 19 20 21 21 21 22 22 23 24 25 26 27 27 26 26 28 30 31 28 23 21 23 24 26 27 25 22 19 17 16 17 17 17 18 19 19 19 19 19 18 17 17 16 15 14 13
20 19 20 20 20 20 20 20 20 20 19 19 18 18 19 19 20 21 21 21 20 19 18 19 20 21 21 21 21 21 22 23 24 26 26 27 26 26 26 28 31 29 25 22 23 25 27 27 27 25 23 20 18 17 17 17 17 17 18 18 18 18 18 18 18 17 16 15 13
20 20 20 20 21 21 21 21 20 20 19 19 19 18 19 19 20 21 21 20 19 18 18 19 21 21 21 21 20 20 21 22 23 25 26 26 26 26 25 25 27 29 27 24 24 25 27 27 27 27 25 23 21 19 18 18 18 18 18 18 18 18 18 18 18 18 18 18 16
21 21 21 21 21 21 21 21 21 20 20 19 19 18 18 19 19 20 20 19 19 19 19 20 21 21 21 20 19 19 20 21 23 24 25 25 26 26 25 24 24 26 27 26 24 25 26 27 27 26 26 25 24 23 22 21 21 20 20 20 19 19 18 18 18 18 19 19 19
21 21 21 21 21 21 21 21 21 20 20 19 19 18 18 18 19 19 20 20 20 20 20 21 21 21 20 19 18 18 19 20 21 23 24 25 26 26 25 24 22 23 26 27 24 24 26 27 26 26 25 25 25 25 24 24 24 24 24 23 22 21 20 19 18 18 18 19 19
21 21 21 21 21 21 22 22 21 21 20 19 18 18 18 18 18 19 19 20 20 20 21 21 21 20 19 18 17 17 18 19 21 22 23 24 25 25 25 24 22 22 23 26 25 24 25 27 26 25 25 25 25 25 25 25 26 26 26 25 25 23 22 20 19 18 17 17 17
21 21 21 21 21 21 22 22 22 21 20 19 18 18 17 17 18 18 19 20 20 21 21 21 21 19 18 17 16 16 17 18 20 21 22 23 24 25 25 24 23 21 22 25 26 24 24 26 26 25 25 24 25 25 25 25 26 26 26 26 26 25 24 23 21 19 17 15 14
21 21 21 21 21 21 22 22 22 22 21 20 19 18 18 17 17 18 18 19 20 21 22 22 21 20 18 17 16 16 17 18 19 20 21 22 23 24 24 24 23 21 21 23 25 24 23 25 26 26 25 24 24 25 25 25 25 26 26 26 26 26 26 25 23 21 18 15 13
21 21 21 21 21 22 22 22 22 22 21 20 19 18 18 18 17 17 18 19 20 21 21 21 20 19 18 16 16 16 16 17 18 19 20 21 22 23 23 23 22 21 20 20 23 24 23 23 26 26 25 24 24 25 25 25 26 26 26 26 27 27 27 27 25 23 20 16 13
21 21 21 21 21 22 22 22 23 22 22 21 20 19 18 18 17 17 18 18 19 20 20 20 19 18 17 15 15 15 16 17 17 19 20 21 21 22 22 22 22 21 19 18 21 23 22 21 25 27 26 25 24 25 25 26 26 26 27 27 27 27 27 28 27 26 23 19 16
21 21 22 22 22 22 22 22 23 23 23 22 21 20 19 18 18 18 18 18 19 19 20 20 20 18 17 16 15 15 16 16 17 18 19 20 21 21 22 22 22 21 20 18 20 22 22 20 23 26 27 26 25 24 25 25 26 26 27 27 27 27 28 28 28 28 27 24 21
21 21 22 22 22 22 22 22 23 23 23 22 22 21 20 19 18 18 18 18 19 19 20 20 20 20 19 17 16 15 15 16 17 17 18 19 20 21 21 21 21 21 20 19 19 22 23 21 22 25 27 27 26 24 24 25 25 26 26 27 27 27 27 28 28 29 28 28 26
21 21 21 22 22 22 22 22 23 23 23 23 22 22 21 20 19 18 18 18 19 20 20 21 21 21 20 19 18 16 16 15 16 16 17 18 19 19 20 21 21 20 20 20 20 21 22 22 21 23 25 26 26 25 24 24 24 25 26 26 27 27 27 27 28 28 29 29 28
20 21 21 21 21 22 22 22 22 23 23 23 23 22 21 21 20 19 19 19 19 20 21 21 21 21 21 20 19 18 17 16 15 16 16 17 17 18 19 19 19 19 19 19 19 20 21 22 21 21 23 24 25 25 24 23 23 24 25 26 26 27 27 27 28 28 29 29 28
20 21 21 21 21 21 21 21 22 22 23 23 23 22 22 21 21 20 19 19 19 20 20 21 21 21 21 21 20 19 18 17 16 16 16 16 16 17 17 17 18 18 19 19 19 19 20 22 22 21 21 21 23 24 24 23 23 23 24 25 26 27 27 27 28 28 29 29 28
20 20 20 21 21 21 21 21 21 22 22 22 23 23 23 22 21 21 20 19 19 19 20 20 21 21 21 21 21 20 20 19 18 17 16 16 15 15 15 16 17 18 18 18 19 19 20 21 22 22 20 19 21 22 23 23 22 22 23 24 25 26 27 27 28 28 29 29 29
Wind_Direction
360 360 360 360 0 1 1 2 3 2 1 1 3 4 5 5 5 4 3 1 358 355 353 352 352 353 354 354 350 346 343 341 341 341 340 338 336 334 333 331 330 327 325 324 322 320 317 315 312 310 308 306 304 302 301 300 299 300 300 299 300 300 300 298 300 302 304 300 296
0 0 1 1 1 2 3 3 3 2 0 360 1 3 4 5 4 3 1 360 358 355 352 352 354 356 356 354 350 346 344 344 345 345 344 343 341 339 337 336 335 333 331 328 324 320 317 315 313 310 307 304 303 301 299 299 299 299 299 300 301 301 301 301 305 308 307 300 298
1 1 1 2 2 3 4 4 4 2 1 360 1 3 4 4 3 2 360 359 357 356 354 353 356 358 356 353 351 349 348 348 348 348 347 346 345 343 341 340 339 338 335 331 327 323 319 316 313 310 306 304 302 300 298 299 300 299 298 300 301 302 302 305 309 309 304 302 305
1 1 2 3 4 4 5 4 3 2 1 1 2 3 4 3 2 0 359 358 357 356 356 357 359 358 355 352 352 353 354 354 353 351 350 350 348 347 345 343 342 340 338 335 330 327 323 319 315 311 307 305 302 300 300 300 301 300 300 302 303 304 305 308 310 308 306 310 316
1 2 3 4 5 6 5 4 3 2 1 1 3 4 4 2 0 360 359 358 358 358 360 1 360 357 354 354 355 357 359 359 357 355 354 353 352 351 349 346 344 342 340 337 334 331 328 324 318 313 309 306 304 303 302 304 304 303 304 306 307 309 312 313 313 313 314 318 322
1 2 3 5 6 7 6 4 3 2 2 2 4 4 3 1 1 0 360 359 360 1 2 2 360 357 356 356 358 0 2 2 1 359 357 355 355 355 353 349 347 345 343 340 338 336 333 329 322 316 312 309 307 307 309 310 310 310 312 312 314 316 318 317 317 318 319 322 326
1 2 3 5 7 7 6 4 3 3 3 4 5 4 2 1 1 1 0 0 2 3 3 2 1 359 358 359 0 3 4 4 3 2 1 360 360 358 356 353 352 350 347 344 342 341 339 335 326 319 315 312 311 313 316 317 317 318 318 319 321 323 323 320 319 320 323 327 330
2 2 3 5 7 7 6 5 4 5 5 5 5 3 2 2 2 1 1 3 4 5 4 3 1 0 360 0 2 4 5 5 5 4 4 4 2 1 359 358 357 355 353 350 348 347 346 342 335 329 325 323 321 321 323 323 323 322 323 325 329 331 327 321 321 324 327 330 331
1 2 3 5 7 7 6 6 6 7 6 6 4 3 3 3 3 2 3 5 6 6 5 3 3 2 2 3 4 5 6 6 6 6 6 6 4 2 2 1 1 359 357 356 355 353 353 352 348 344 340 336 332 331 330 329 328 327 329 334 338 337 330 324 325 328 331 332 334
1 1 2 4 6 6 5 6 6 7 6 6 5 5 4 4 4 4 5 6 7 7 6 5 4 3 3 5 6 7 7 7 7 8 8 8 6 5 4 4 3 2 1 360 359 358 359 1 1 359 356 352 347 343 341 339 336 335 337 342 343 341 336 332 330 331 335 341 348
0 1 2 3 4 4 4 5 6 6 6 6 6 6 6 5 5 5 7 8 8 8 7 7 5 5 5 6 7 8 8 9 9 10 10 10 9 8 8 7 6 5 3 2 0 0 3 8 10 10 9 6 1 356 352 350 346 343 343 346 347 346 343 339 334 336 345 357 8
360 360 0 1 1 2 2 4 5 6 6 6 6 7 6 6 6 7 8 9 8 8 8 8 7 6 6 7 7 8 9 10 10 11 11 12 12 13 12 11 10 9 6 2 1 1 5 11 14 16 16 15 11 6 1 357 353 350 350 352 357 357 352 343 338 344 358 12 20
359 359 359 359 359 359 0 1 3 5 6 7 7 7 7 7 7 8 8 9 8 8 8 9 9 8 8 8 8 9 10 10 11 12 12 14 15 16 16 15 14 12 8 3 1 2 6 11 15 18 19 19 17 14 10 4 1 358 357 359 2 4 0 351 349 1 16 26 28
358 358 357 357 357 356 357 358 1 3 5 7 7 7 7 8 8 8 8 8 8 8 8 9 9 10 9 9 9 10 10 11 12 12 13 14 17 18 19 18 18 16 11 5 3 4 7 11 16 20 22 24 24 23 21 18 14 11 9 7 7 6 5 6 17 29 36 38 35
357 357 356 356 355 354 354 355 358 1 4 6 7 7 7 8 8 8 7 7 7 7 7 8 9 10 11 11 10 10 11 12 12 13 14 15 17 20 22 22 20 18 13 8 8 9 11 16 22 27 30 33 34 35 34 33 32 31 29 27 25 26 31 40 46 48 48 45 39
357 356 355 355 354 352 352 352 355 359 2 4 5 6 7 7 8 7 6 5 5 5 6 7 8 10 11 11 11 11 12 12 13 14 15 16 18 21 24 24 23 20 16 12 14 16 18 24 31 37 41 43 45 46 46 45 45 45 46 48 52 58 60 59 56 53 50 46 41
356 355 355 354 352 351 350 350 353 356 359 2 3 4 5 6 6 6 5 4 3 3 4 6 8 9 11 12 12 12 12 12 13 14 15 17 19 22 25 27 26 23 19 16 18 21 25 31 37 43 48 51 53 54 55 54 54 54 54 57 61 66 67 62 55 50 47 45 41
355 354 354 353 352 350 350 349 350 353 356 359 1 2 3 4 5 5 4 3 2 2 2 4 6 8 10 12 13 12 12 12 12 14 15 18 20 23 26 28 28 26 22 18 16 20 27 33 37 42 48 53 57 59 60 60 60 60 61 61 62 63 63 60 56 51 47 44 41
354 353 353 352 352 351 350 349 349 350 352 355 356 358 0 2 3 3 2 2 2 1 0 1 4 7 9 11 13 13 12 11 11 13 14 17 20 24 27 29 30 28 24 18 13 16 24 31 32 35 40 46 52 57 60 62 63 65 66 66 65 63 60 60 60 59 54 48 42
353 353 353 352 352 351 350 349 348 348 349 351 352 354 356 359 0 1 1 1 0 0 360 360 2 4 7 10 12 13 13 12 11 11 13 15 19 23 28 30 31 29 25 17 11 13 21 28 28 28 30 35 41 48 55 60 64 66 67 69 69 68 66 64 65 64 62 57 48
353 353 353 353 352 351 350 349 348 347 347 348 349 350 352 355 357 359 359 359 358 358 359 359 0 3 5 8 10 12 13 12 11 11 11 12 15 20 26 31 32 32 27 18 10 11 19 25 26 25 25 26 31 37 44 52 58 62 63 63 64 65 65 65 65 64 63 59 54
354 354 354 353 353 351 350 349 348 347 347 346 346 347 349 352 355 356 357 357 357 357 357 358 360 2 4 6 8 9 11 12 12 11 10 10 11 14 21 29 33 34 30 20 10 9 15 22 24 24 23 23 25 29 35 41 47 51 53 53 51 51 52 55 57 58 58 56 53
355 355 355 354 353 352 352 351 350 350 349 347 347 347 347 349 352 354 355 355 355 355 356 358 359 1 2 4 6 7 9 10 11 11 10 9 8 9 15 23 32 36 33 23 12 9 12 17 20 22 22 23 24 26 29 33 36 38 39 39 38 38 39 41 45 49 51 51 50
356 356 355 355 355 354 353 353 353 352 351 351 349 348 348 349 350 352 353 353 353 354 355 357 359 360 1 3 4 6 8 9 10 10 10 9 7 7 10 16 26 34 35 27 19 15 13 13 15 17 19 21 24 27 29 30 31 31 31 30 29 28 28 30 34 39 44 46 46
357 357 356 356 356 356 356 356 355 355 355 354 352 351 350 349 350 351 351 352 352 352 354 356 358 359 360 2 3 5 7 8 9 9 9 8 8 7 8 11 18 28 35 31 26 22 17 13 13 13 14 15 19 23 26 28 29 30 29 27 25 23 21 21 23 27 33 37 40
357 357 357 357 357 357 357 358 358 358 357 356 355 354 352 352 351 351 350 351 351 352 353 355 357 358 359 360 2 5 7 8 9 9 9 8 8 8 8 10 14 23 33 33 30 26 20 14 13 12 11 9 10 13 16 20 22 24 24 23 21 19 16 14 13 14 16 20 27
357 357 358 359 358 358 358 359 360 360 360 359 358 357 356 354 352 351 351 351 351 352 353 355 356 357 357 358 1 4 6 8 9 9 9 9 8 8 9 11 14 20 28 33 31 25 20 16 14 13 12 10 8 8 9 11 12 13 14 14 14 13 11 9 7 5 3 3 7
356 358 359 359 359 359 359 360 1 1 2 2 1 0 359 357 354 353 353 353 353 352 353 355 355 356 356 357 359 3 6 8 9 9 9 9 9 9 10 12 15 19 24 29 31 27 20 17 15 15 15 14 13 13 12 11 10 9 9 9 9 8 6 4 2 359 357 355 356
356 358 359 359 359 359 359 360 1 2 3 4 3 2 1 358 356 355 355 356 355 355 355 355 355 355 355 356 358 1 5 7 9 10 9 9 9 9 10 10 13 16 19 23 30 28 23 18 17 17 17 18 19 19 19 19 18 17 16 14 11 8 5 1 358 356 353 352 354
356 357 358 359 359 358 358 359 0 2 3 4 4 3 1 359 358 358 359 359 358 357 356 355 354 354 355 356 358 0 3 6 8 10 10 9 9 9 9 9 9 11 14 18 26 29 25 21 19 19 19 21 22 23 24 25 25 24 22 20 16 12 8 3 359 355 352 350 353
356 357 358 359 359 358 358 358 359 1 2 3 3 3 1 359 359 0 1 1 360 358 357 356 355 355 356 357 358 0 2 4 6 8 9 9 8 8 7 7 7 8 11 13 21 27 27 23 21 20 21 22 24 26 27 27 27 27 25 22 20 16 12 8 3 359 354 350 352
356 357 358 359 358 358 358 358 358 360 1 2 2 1 359 358 359 1 2 1 0 359 359 358 358 358 358 359 360 0 1 1 3 5 6 7 7 7 6 5 6 7 9 11 17 23 26 25 23 21 21 23 25 27 29 29 29 29 27 25 22 19 16 13 9 5 360 354 355
356 357 358 359 358 358 358 358 358 359 359 360 360 358 357 356 358 0 2 1 1 1 0 0 360 359 360 360 360 359 359 359 0 1 3 3 4 4 4 4 4 5 8 10 12 17 23 25 23 21 21 22 25 27 29 30 31 30 29 27 25 22 20 18 15 12 7 2 3
356 358 358 359 359 358 358 358 358 358 358 358 358 356 355 355 356 358 359 360 0 1 1 1 1 0 360 359 358 357 356 357 357 358 359 360 1 2 2 2 2 3 5 8 7 10 18 24 22 20 20 21 23 25 27 29 30 30 29 28 27 25 23 21 20 18 15 13 14
356 358 358 359 359 359 358 358 358 358 358 357 356 355 354 354 354 355 356 356 357 359 360 360 360 359 359 358 356 355 354 354 354 355 356 357 357 358 359 0 1 2 3 5 3 6 13 19 19 17 17 18 21 23 25 26 27 28 28 27 26 25 24 22 22 22 21 22 25
356 357 358 358 359 359 359 358 358 358 357 356 355 355 354 353 353 353 352 352 352 354 356 357 357 357 357 356 355 354 352 351 351 352 353 354 355 355 356 358 0 2 3 4 4 5 7 11 13 12 12 13 17 19 21 23 24 25 25 25 25 24 23 22 22 22 22 24 28
356 356 357 357 358 358 358 358 358 358 358 357 356 355 354 353 352 351 349 348 347 348 350 352 353 353 353 353 353 352 351 349 348 349 350 352 353 353 354 356 359 1 3 4 6 3 0 2 7 7 7 8 11 14 17 19 21 21 22 23 23 23 22 21 21 20 21 22 26
356 356 356 356 356 357 358 358 358 358 358 358 357 356 354 353 351 349 348 346 343 343 345 347 348 348 348 348 348 348 348 346 346 346 348 351 352 352 352 354 357 360 2 2 4 0 357 357 359 0 2 4 5 8 11 14 16 18 19 19 20 20 20 20 20 19 19 19 21
356 355 355 354 355 356 357 358 358 358 357 357 357 357 355 353 351 350 348 345 342 340 340 342 343 344 343 342 342 343 343 344 344 344 346 349 351 351 350 350 353 356 358 359 360 359 356 353 349 351 356 359 1 2 4 7 11 13 15 15 15 16 17 18 18 18 18 17 18
356 355 354 353 353 354 356 357 358 358 357 357 358 357 356 355 353 351 349 345 342 340 338 338 339 340 340 339 337 337 338 340 341 343 344 346 348 348 348 347 349 351 353 354 355 357 356 351 344 343 348 354 358 358 358 0 4 8 10 12 12 12 13 14 15 16 16 15 16
355 354 353 352 353 353 355 356 357 358 358 358 358 358 358 357 355 352 349 346 342 340 338 337 338 338 338 336 334 332 332 334 338 340 342 343 345 346 345 344 344 345 347 349 350 351 351 348 343 338 339 348 354 355 353 354 357 1 5 7 8 8 8 10 12 13 13 13 14
Height
1551 1549 1547 1545 1544 1542 1541 1539 1537 1536 1535 1533 1531 1530 1528 1527 1525 1524 1522 1520 1518 1516 1515 1513 1511 1509 1507 1505 1502 1500 1498 1496 1494 1491 1489 1487 1485 1482 1480 1478 1476 1474 1471 1469 1468 1466 1465 1463 1462 1461 1459 1458 1456 1455 1454 1452 1451 1450 1449 1448 1447 1446 1445 1445 1444 1444 1444 1444 1444
1550 1549 1547 1546 1544 1542 1541 1539 1537 1536 1535 1533 1531 1530 1528 1527 1525 1523 1522 1520 1519 1517 1515 1513 1511 1509 1507 1505 1502 1500 1498 1495 1493 1490 1488 1485 1483 1481 1478 1476 1474 1472 1470 1468 1466 1464 1463 1461 1460 1459 1457 1456 1455 1453 1452 1451 1450 1449 1448 1446 1446 1445 1444 1443 1443 1443 1443 1442 1442
1550 1549 1547 1545 1543 1542 1540 1539 1538 1536 1535 1533 1531 1530 1528 1526 1525 1523 1522 1520 1519 1517 1515 1513 1511 1509 1506 1504 1502 1500 1498 1495 1492 1489 1486 1484 1481 1479 1477 1474 1472 1470 1468 1466 1464 1462 1461 1459 1458 1457 1456 1454 1453 1451 1450 1449 1448 1447 1446 1445 1444 1444 1443 1442 1442 1442 1442 1441 1441
1550 1548 1547 1545 1543 1542 1541 1539 1538 1536 1535 1533 1531 1530 1528 1527 1525 1524 1522 1520 1519 1517 1515 1513 1511 1508 1506 1504 1502 1500 1497 1494 1491 1489 1486 1483 1480 1478 1475 1473 1471 1468 1466 1464 1462 1460 1459 1457 1456 1455 1453 1452 1451 1449 1448 1447 1446 1446 1445 1444 1443 1442 1441 1441 1441 1441 1440 1440 1439
1550 1548 1546 1545 1543 1542 1541 1539 1538 1536 1535 1533 1531 1530 1528 1527 1525 1524 1522 1520 1518 1516 1515 1512 1511 1508 1506 1504 1502 1499 1496 1494 1491 1488 1485 1482 1479 1477 1474 1471 1469 1466 1464 1462 1460 1459 1457 1456 1454 1453 1451 1450 1449 1448 1446 1446 1445 1445 1444 1443 1442 1441 1441 1440 1440 1439 1439 1439 1438
1549 1547 1546 1544 1543 1541 1540 1539 1537 1536 1534 1533 1531 1529 1528 1527 1525 1524 1522 1520 1518 1516 1514 1512 1511 1509 1506 1504 1501 1498 1496 1493 1490 1487 1485 1482 1479 1476 1473 1471 1468 1466 1463 1461 1459 1457 1455 1454 1452 1451 1449 1448 1447 1446 1445 1445 1444 1443 1442 1441 1441 1440 1439 1439 1438 1438 1438 1437 1437
1549 1547 1546 1544 1542 1541 1540 1539 1537 1536 1534 1532 1531 1529 1528 1526 1525 1523 1521 1520 1518 1516 1514 1512 1510 1508 1506 1503 1501 1498 1495 1493 1490 1487 1485 1481 1478 1476 1473 1470 1467 1465 1462 1460 1457 1456 1454 1452 1451 1450 1448 1447 1446 1445 1444 1444 1443 1442 1441 1440 1439 1439 1438 1438 1437 1437 1436 1436 1436
1548 1547 1545 1544 1542 1541 1540 1538 1537 1535 1533 1532 1531 1529 1528 1526 1524 1523 1521 1519 1517 1515 1514 1512 1510 1508 1506 1503 1501 1498 1495 1492 1490 1487 1484 1481 1478 1475 1473 1470 1467 1465 1462 1459 1457 1455 1453 1451 1450 1448 1447 1446 1445 1444 1443 1442 1442 1441 1440 1439 1438 1438 1437 1437 1436 1436 1436 1435 1434
1548 1546 1545 1543 1541 1540 1539 1538 1536 1535 1533 1532 1530 1529 1527 1526 1524 1522 1521 1519 1517 1516 1514 1512 1510 1508 1506 1503 1501 1498 1496 1493 1490 1487 1484 1481 1478 1476 1473 1470 1467 1464 1461 1459 1456 1454 1452 1451 1449 1448 1446 1445 1444 1443 1442 1441 1441 1440 1439 1438 1438 1437 1437 1436 1436 1435 1435 1434 1433
1547 1546 1544 1542 1541 1540 1539 1537 1536 1535 1533 1531 1530 1529 1527 1526 1524 1522 1521 1519 1517 1516 1514 1512 1510 1508 1505 1503 1501 1498 1496 1493 1490 1487 1484 1481 1479 1476 1473 1470 1467 1465 1462 1459 1457 1455 1452 1451 1449 1447 1446 1445 1444 1442 1441 1440 1440 1439 1438 1438 1437 1437 1436 1436 1436 1435 1434 1433 1433
1546 1545 1543 1542 1541 1539 1538 1537 1536 1534 1533 1531 1530 1528 1527 1525 1524 1522 1520 1519 1517 1516 1514 1512 1510 1507 1505 1503 1501 1498 1496 1493 1491 1488 1485 1482 1479 1476 1473 1471 1468 1465 1462 1460 1457 1455 1453 1451 1449 1448 1446 1445 1443 1442 1441 1440 1439 1438 1438 1437 1437 1436 1436 1436 1436 1435 1434 1433 1433
1546 1544 1543 1541 1540 1539 1538 1536 1535 1534 1532 1531 1529 1528 1526 1525 1523 1521 1520 1519 1517 1516 1514 1512 1510 1507 1505 1503 1501 1498 1496 1493 1491 1488 1485 1483 1480 1477 1474 1471 1468 1466 1463 1461 1458 1456 1454 1452 1450 1448 1447 1445 1444 1442 1441 1440 1439 1438 1437 1437 1436 1436 1436 1436 1435 1435 1434 1433 1433
1546 1544 1542 1541 1540 1538 1537 1536 1535 1533 1532 1531 1529 1527 1526 1525 1523 1521 1520 1518 1517 1515 1514 1512 1510 1508 1506 1503 1501 1499 1496 1494 1491 1489 1486 1484 1481 1477 1474 1472 1469 1467 1465 1462 1460 1457 1455 1453 1451 1449 1447 1446 1444 1443 1441 1440 1439 1438 1437 1437 1436 1436 1436 1436 1435 1435 1435 1434 1433
1545 1544 1542 1541 1539 1538 1537 1536 1534 1533 1532 1530 1529 1527 1526 1524 1523 1521 1520 1518 1517 1515 1514 1512 1510 1508 1506 1503 1501 1499 1496 1494 1492 1489 1487 1484 1481 1478 1475 1473 1470 1468 1466 1464 1461 1459 1456 1454 1452 1450 1448 1447 1445 1444 1442 1441 1439 1438 1437 1437 1437 1436 1436 1436 1436 1436 1435 1434 1433
1545 1543 1542 1540 1539 1538 1536 1535 1534 1533 1531 1530 1528 1527 1526 1524 1522 1521 1520 1518 1517 1515 1514 1512 1510 1508 1506 1504 1501 1499 1497 1495 1492 1490 1487 1485 1482 1479 1476 1474 1471 1470 1468 1466 1463 1460 1458 1455 1453 1451 1450 1448 1446 1445 1443 1441 1440 1439 1438 1437 1437 1437 1437 1437 1437 1436 1435 1434 1434
1544 1543 1541 1540 1539 1537 1536 1535 1534 1532 1531 1530 1528 1527 1525 1524 1522 1521 1519 1518 1516 1515 1514 1512 1510 1508 1506 1504 1501 1499 1497 1495 1493 1490 1488 1485 1483 1480 1477 1475 1472 1471 1470 1468 1465 1462 1459 1457 1455 1453 1451 1449 1447 1446 1444 1442 1441 1440 1439 1438 1438 1438 1438 1438 1437 1436 1436 1435 1435
1544 1542 1541 1540 1538 1537 1536 1535 1533 1532 1531 1529 1528 1526 1525 1524 1522 1521 1519 1518 1516 1515 1514 1512 1510 1508 1506 1504 1501 1499 1497 1495 1493 1491 1488 1486 1484 1481 1479 1476 1474 1472 1471 1469 1467 1464 1461 1459 1457 1455 1453 1451 1449 1447 1445 1444 1442 1441 1440 1439 1439 1439 1439 1439 1438 1437 1437 1436 1436
1544 1542 1541 1539 1538 1536 1535 1534 1533 1531 1530 1529 1527 1526 1525 1524 1522 1521 1519 1518 1516 1515 1513 1512 1510 1508 1506 1504 1502 1500 1497 1496 1494 1491 1489 1487 1485 1482 1480 1477 1475 1474 1472 1471 1469 1466 1463 1461 1459 1457 1455 1453 1451 1449 1447 1445 1444 1442 1441 1441 1440 1441 1441 1440 1440 1439 1438 1438 1438
1543 1542 1540 1539 1537 1536 1535 1534 1532 1531 1530 1528 1527 1526 1525 1523 1522 1521 1519 1518 1516 1515 1513 1512 1510 1508 1506 1504 1502 1500 1498 1496 1494 1492 1490 1488 1486 1483 1481 1478 1476 1475 1473 1473 1471 1469 1466 1463 1461 1459 1457 1455 1453 1451 1449 1447 1446 1444 1443 1442 1441 1441 1441 1441 1441 1441 1441 1441 1440
1543 1541 1540 1538 1537 1536 1534 1533 1532 1531 1529 1528 1527 1526 1525 1523 1522 1521 1519 1517 1516 1514 1513 1511 1510 1508 1506 1505 1502 1500 1498 1496 1494 1493 1491 1489 1487 1484 1482 1479 1477 1476 1474 1474 1472 1470 1467 1465 1463 1461 1459 1457 1456 1453 1451 1450 1448 1447 1446 1444 1443 1442 1442 1442 1442 1441 1441 1441 1441
1542 1541 1539 1538 1536 1535 1534 1532 1531 1530 1529 1527 1526 1525 1524 1523 1521 1520 1519 1517 1516 1514 1513 1511 1510 1508 1506 1504 1502 1500 1498 1497 1495 1493 1491 1489 1487 1485 1483 1480 1478 1476 1475 1474 1473 1471 1469 1467 1465 1462 1461 1459 1457 1456 1454 1452 1451 1449 1448 1447 1446 1445 1444 1443 1443 1442 1442 1441 1441
1542 1540 1539 1537 1536 1535 1533 1532 1531 1530 1528 1527 1526 1525 1524 1522 1521 1520 1518 1517 1515 1514 1512 1511 1510 1508 1506 1505 1503 1501 1499 1497 1495 1493 1491 1490 1488 1486 1484 1481 1479 1477 1476 1476 1474 1472 1470 1468 1466 1464 1462 1460 1459 1457 1456 1454 1453 1451 1451 1450 1449 1448 1447 1446 1445 1444 1443 1442 1441
1541 1540 1538 1537 1536 1535 1533 1532 1530 1529 1528 1526 1526 1524 1523 1522 1521 1519 1518 1516 1515 1513 1512 1511 1509 1508 1506 1505 1503 1501 1499 1497 1495 1493 1491 1490 1488 1486 1484 1482 1480 1478 1476 1477 1475 1472 1470 1469 1467 1465 1463 1461 1460 1458 1457 1456 1454 1453 1452 1451 1450 1449 1449 1448 1447 1446 1445 1444 1442
1541 1540 1538 1537 1536 1534 1533 1531 1530 1529 1527 1526 1525 1524 1523 1521 1520 1519 1517 1516 1514 1513 1511 1510 1509 1507 1506 1505 1503 1501 1499 1497 1495 1493 1491 1490 1488 1486 1484 1482 1480 1479 1478 1478 1476 1473 1470 1469 1467 1466 1464 1462 1461 1459 1458 1456 1455 1454 1453 1452 1451 1450 1449 1448 1448 1447 1446 1445 1443
1541 1540 1538 1537 1535 1534 1532 1531 1530 1528 1527 1526 1524 1523 1522 1521 1520 1518 1517 1515 1514 1512 1511 1510 1508 1507 1506 1504 1503 1501 1499 1497 1496 1493 1491 1490 1488 1486 1484 1482 1480 1479 1480 1479 1477 1475 1471 1469 1468 1466 1465 1463 1462 1460 1459 1457 1456 1455 1454 1452 1451 1450 1449 1449 1448 1447 1446 1445 1444
1541 1540 1538 1536 1535 1534 1532 1531 1529 1528 1526 1525 1524 1523 1522 1521 1519 1518 1516 1515 1513 1512 1511 1509 1508 1506 1505 1504 1503 1501 1500 1498 1496 1494 1492 1490 1488 1486 1484 1482 1480 1480 1481 1479 1477 1475 1472 1470 1468 1467 1466 1464 1462 1461 1460 1458 1457 1456 1455 1453 1452 1451 1450 1449 1448 1447 1446 1446 1445
1541 1539 1538 1536 1535 1533 1532 1530 1529 1527 1526 1525 1524 1522 1521 1520 1519 1517 1516 1514 1513 1511 1510 1509 1507 1506 1505 1504 1502 1501 1500 1498 1496 1494 1492 1491 1489 1487 1485 1483 1481 1481 1481 1480 1478 1475 1473 1471 1469 1467 1466 1464 1463 1461 1460 1459 1458 1456 1455 1454 1453 1451 1450 1449 1448 1447 1446 1446 1445
1540 1539 1537 1536 1534 1533 1531 1530 1528 1527 1526 1525 1523 1522 1521 1520 1518 1517 1516 1514 1513 1511 1510 1509 1507 1506 1505 1503 1502 1501 1500 1498 1496 1495 1493 1491 1490 1488 1486 1484 1482 1482 1482 1481 1478 1476 1474 1471 1470 1468 1466 1465 1463 1462 1461 1459 1458 1457 1456 1454 1453 1452 1451 1449 1448 1447 1446 1445 1444
1540 1538 1537 1535 1534 1532 1531 1529 1528 1527 1526 1524 1523 1522 1521 1519 1518 1517 1515 1514 1512 1511 1509 1508 1507 1506 1504 1503 1502 1501 1500 1498 1496 1495 1493 1491 1490 1488 1487 1485 1483 1482 1482 1481 1479 1476 1474 1472 1471 1469 1467 1466 1464 1462 1461 1459 1458 1457 1456 1454 1453 1452 1451 1450 1448 1447 1446 1445 1444
1539 1537 1536 1535 1533 1532 1530 1529 1528 1526 1525 1524 1523 1521 1520 1519 1518 1516 1515 1513 1512 1511 1509 1508 1506 1505 1504 1503 1502 1501 1499 1498 1497 1495 1494 1492 1490 1489 1487 1486 1484 1482 1481 1481 1480 1477 1475 1473 1471 1470 1468 1467 1465 1463 1461 1460 1459 1457 1456 1455 1454 1452 1451 1450 1449 1448 1446 1445 1444
1538 1537 1536 1534 1533 1531 1530 1529 1527 1526 1525 1524 1522 1521 1520 1519 1517 1516 1515 1513 1512 1511 1509 1508 1506 1505 1504 1503 1501 1501 1499 1498 1497 1495 1494 1492 1491 1489 1487 1486 1484 1483 1481 1481 1480 1478 1475 1474 1472 1471 1470 1468 1466 1464 1463 1461 1460 1458 1457 1456 1454 1453 1452 1451 1449 1448 1446 1445 1444
1538 1537 1536 1534 1532 1531 1530 1528 1527 1526 1524 1523 1522 1521 1520 1518 1517 1516 1515 1513 1512 1511 1509 1507 1506 1505 1503 1502 1501 1500 1499 1498 1496 1495 1494 1492 1491 1489 1488 1486 1485 1483 1481 1481 1481 1478 1475 1474 1473 1472 1470 1469 1467 1466 1464 1462 1461 1460 1458 1457 1456 1454 1452 1451 1450 1448 1447 1445 1444
1538 1536 1535 1534 1532 1531 1529 1528 1526 1525 1524 1523 1521 1520 1519 1518 1517 1516 1514 1513 1512 1510 1509 1507 1506 1504 1503 1502 1501 1500 1499 1498 1497 1496 1494 1493 1491 1490 1488 1486 1485 1483 1482 1481 1481 1479 1476 1474 1473 1472 1471 1470 1468 1466 1465 1464 1462 1461 1459 1458 1456 1455 1454 1452 1450 1449 1447 1446 1444
1537 1536 1535 1533 1532 1530 1529 1527 1526 1525 1523 1522 1521 1520 1519 1517 1516 1515 1514 1513 1511 1510 1509 1507 1506 1505 1503 1502 1501 1500 1499 1498 1497 1496 1494 1493 1491 1490 1488 1486 1485 1483 1482 1481 1480 1480 1477 1474 1473 1473 1471 1470 1469 1467 1466 1464 1463 1461 1460 1459 1457 1456 1454 1453 1451 1449 1448 1446 1445
1537 1536 1534 1533 1531 1530 1529 1527 1526 1524 1523 1522 1521 1520 1518 1517 1516 1514 1513 1512 1511 1510 1509 1508 1506 1505 1504 1502 1501 1500 1499 1498 1496 1495 1494 1493 1491 1490 1488 1486 1485 1484 1482 1481 1480 1479 1478 1475 1473 1472 1472 1471 1469 1468 1466 1465 1463 1462 1461 1459 1458 1456 1455 1453 1452 1450 1448 1447 1445
1536 1535 1534 1532 1531 1530 1528 1527 1525 1524 1523 1521 1520 1519 1518 1516 1515 1514 1513 1512 1511 1510 1509 1507 1506 1505 1504 1502 1501 1500 1499 1497 1496 1495 1494 1493 1491 1490 1488 1486 1485 1484 1482 1481 1479 1478 1478 1476 1473 1472 1471 1471 1469 1468 1467 1465 1464 1462 1461 1460 1458 1456 1455 1454 1452 1451 1449 1447 1446
1536 1534 1533 1532 1531 1529 1528 1526 1525 1524 1522 1521 1520 1518 1517 1516 1515 1514 1512 1511 1510 1509 1508 1507 1506 1505 1503 1502 1501 1500 1499 1497 1496 1495 1494 1493 1491 1490 1488 1486 1485 1484 1482 1481 1479 1478 1477 1477 1474 1472 1471 1471 1469 1468 1467 1466 1464 1463 1461 1460 1458 1457 1456 1454 1453 1451 1449 1448 1446
1535 1534 1533 1531 1530 1529 1527 1526 1525 1523 1522 1521 1519 1518 1517 1516 1514 1513 1512 1511 1509 1508 1507 1506 1505 1504 1503 1502 1501 1500 1499 1497 1496 1495 1494 1492 1491 1490 1488 1486 1485 1484 1482 1481 1479 1477 1476 1476 1475 1472 1471 1470 1469 1468 1467 1466 1465 1463 1462 1460 1459 1457 1456 1455 1453 1451 1450 1448 1446
1535 1534 1532 1531 1530 1529 1527 1526 1524 1523 1521 1520 1519 1517 1516 1515 1514 1512 1511 1510 1509 1508 1506 1506 1505 1504 1502 1501 1501 1499 1498 1497 1496 1495 1494 1492 1491 1490 1488 1486 1485 1484 1482 1481 1479 1477 1476 1475 1475 1473 1471 1470 1469 1468 1467 1466 1465 1463 1462 1461 1459 1458 1456 1455 1453 1452 1450 1449 1447
1534 1533 1532 1531 1530 1528 1527 1526 1524 1523 1521 1520 1518 1517 1516 1515 1513 1512 1511 1510 1509 1507 1506 1505 1504 1503 1502 1501 1500 1499 1498 1497 1496 1495 1493 1492 1491 1490 1488 1487 1485 1484 1482 1481 1479 1477 1476 1474 1474 1473 1471 1469 1469 1468 1467 1466 1465 1464 1462 1461 1459 1458 1456 1455 1453 1452 1450 1449 1447
1534 1533 1532 1531 1530 1528 1527 1526 1524 1523 1521 1520 1518 1517 1516 1514 1513 1512 1511 1510 1508 1507 1506 1505 1504 1503 1502 1501 1499 1498 1497 1496 1495 1494 1493 1492 1491 1489 1488 1486 1485 1484 1482 1481 1480 1478 1476 1474 1473 1473 1472 1469 1468 1468 1467 1466 1465 1463 1462 1461 1459 1458 1456 1455 1453 1452 1450 1449 1447